[[{"header":{"parameterUnit":"m.s-1","parameterCategory":1,"la1":30.2991,"la2":30.254,"lo1":-89.0895,"lo2":-89.0444,"dy":0.0017,"dx":0.0017,"nx":28,"ny":28,"refTime":"2025-06-02T09:00:00:Z","depth":0,"parameterNumber":2,"parameterNumberName":"U-component_of_WINDS"},"data":[0,0,0,0,0,0,0,0,0,0,0,0,0,0,0,0,0,0,0,0,0,0,0,0,0,0,0,0,0,0,0,0,0,0,0,0,0,0,0,0,0,0,0,0,0,0,0,0,0,0,0,0,0,0,0,0,0,0,-3.7013,-3.7014,0,-3.7127,-3.7128,-3.713,-3.7127,-3.7126,-3.7124,-3.7123,-3.7239,-3.7244,-3.7248,0,0,0,0,0,0,0,0,0,0,0,0,0,-3.679,-3.6795,-3.7012,-3.7014,-3.7015,-3.7127,-3.7128,-3.713,-3.7128,-3.7126,-3.7124,-3.7122,-3.7238,-3.7243,-3.7248,0,0,0,0,0,0,0,0,0,0,0,0,0,-3.6894,-3.6796,-3.7012,-3.7028,-3.703,-3.7126,-3.7128,-3.713,-3.7128,-3.7126,-3.7124,-3.7121,-3.7236,-3.7242,-3.7249,-3.7337,0,0,-3.727,-3.7273,0,0,0,0,0,0,0,0,-3.6888,-3.6902,-3.7024,-3.7027,-3.703,-3.7111,-3.7093,-3.72,-3.7129,-3.7091,-3.7123,-3.712,-3.7198,-3.7208,-3.7234,-3.7343,-3.7348,-3.727,-3.7275,-3.7278,-3.7279,0,0,0,0,0,0,0,-3.6881,-3.6897,-3.7058,-3.7026,-3.7029,-3.7028,-3.7041,-3.7113,-3.7156,-3.7094,-3.7094,-3.7108,-3.7199,-3.7228,-3.7237,-3.7349,-3.727,-3.7276,-3.7281,-3.7283,-3.7533,-3.7536,0,0,0,0,0,0,-3.6871,-3.6891,-3.7054,-3.7061,-3.6952,-3.7034,-3.7048,-3.7087,-3.7155,-3.7163,-3.711,-3.7107,-3.7217,-3.7229,-3.7241,-3.7347,-3.7277,-3.7284,-3.7288,-3.7531,-3.7534,-3.7536,0,0,0,0,0,0,-3.6866,-3.6885,-3.7049,-3.6976,-3.6997,-3.7041,-3.7084,-3.709,-3.7119,-3.7167,-3.7175,-3.7131,-3.7216,-3.7232,-3.7313,-3.7351,-3.7287,-3.7293,-3.7528,-3.7532,-3.7535,-3.756,0,0,0,0,0,0,-3.686,-3.6884,-3.6918,-3.6977,-3.7001,-3.712,-3.7087,-3.7094,-3.7131,-3.7129,-3.7189,-3.7197,-3.7215,-3.7303,-3.732,-3.7359,-3.7298,-3.7524,-3.7529,-3.7534,-3.7556,-3.7564,-3.7571,0,0,0,0,0,-3.6852,-3.6921,-3.692,-3.6939,-3.7045,-3.7122,-3.7136,-3.7156,-3.7134,-3.7168,-3.7199,-3.7195,-3.7344,-3.7311,-3.733,-3.7372,-3.7522,-3.7528,-3.7533,-3.7552,-3.7562,-3.7571,0,0,0,0,0,0,-3.6865,-3.6929,-3.6928,-3.7019,-3.7065,-3.7122,-3.7166,-3.7166,-3.722,-3.7215,-3.7238,-3.7252,-3.7332,-3.7361,-3.7323,-3.746,-3.743,-3.744,-3.7438,-3.7448,-3.7456,-3.7446,-3.7304,0,0,0,0,0,-3.6878,-3.6936,-3.6989,-3.7063,-3.7086,-3.7122,-3.7156,-3.7168,-3.7217,-3.7236,-3.7273,-3.732,-3.7377,-3.7415,-3.747,-3.756,-3.7572,-3.7599,-3.7606,-3.7612,-3.762,-3.7668,-3.7679,-3.7555,-3.7555,-3.7555,0,0,-3.6907,-3.6949,-3.6984,-3.7067,-3.7104,-3.7162,-3.7138,-3.7202,-3.7245,-3.7246,-3.7324,-3.7353,-3.7407,-3.7492,-3.7532,-3.7518,-3.7657,-3.762,-3.7624,-3.7629,-3.7675,-3.7686,-3.7697,-3.7559,-3.7559,-3.7558,0,0,-3.6987,-3.7026,-3.7091,-3.7129,-3.7185,-3.7208,-3.7224,-3.7281,-3.7299,-3.7379,-3.738,-3.7431,-3.753,-3.7568,-3.76,-3.7694,-3.7692,-3.7712,-3.7751,-3.7797,-3.7807,-3.7816,-3.7847,-3.7859,-3.772,-3.772,-3.772,0,-3.7015,-3.7103,-3.7124,-3.7187,-3.7223,-3.7227,-3.7292,-3.7328,-3.7399,-3.7424,-3.7408,-3.7531,-3.7568,-3.7661,-3.7684,-3.771,-3.7728,-3.7704,-3.7804,-3.7813,-3.7822,-3.7852,-3.7864,-3.7722,-3.7722,-3.7721,-3.7721,0,-3.7133,-3.7195,-3.724,-3.7309,-3.735,-3.7414,-3.7444,-3.7483,-3.7491,-3.7516,-3.7595,-3.764,-3.7703,-3.7727,-3.7735,-3.7821,-3.781,-3.7799,-3.777,-3.7835,-3.7863,-3.7875,-3.7724,-3.7724,-3.7723,-3.7723,0,0,-3.7225,-3.7304,-3.732,-3.7351,-3.7413,-3.746,-3.7524,-3.7586,-3.7618,-3.7668,-3.772,-3.7804,-3.7793,-3.783,-3.7843,-3.7884,-3.7952,-3.7867,-3.7869,-3.788,-3.8047,-3.8053,-3.8067,-3.7952,-3.7954,-3.7956,-3.8042,0,-3.7311,-3.7424,-3.7444,-3.7542,-3.7598,-3.7602,-3.7657,-3.77,-3.7725,-3.7775,-3.7802,-3.786,-3.7843,-3.7865,-3.7906,-3.7935,-3.7986,-3.793,-3.8,-3.8002,-3.7984,-3.8082,-3.809,-3.8168,-3.8053,-3.8055,-3.8057,0,-3.7426,-3.7477,-3.7581,-3.7634,-3.7658,-3.7707,-3.7765,-3.7813,-3.7863,-3.7877,-3.7918,-3.7926,-3.7991,-3.796,-3.8049,-3.801,-3.804,-3.8059,-3.8062,-3.8068,-3.8032,-3.8088,-3.8194,-3.8205,-3.8075,-3.8073,-3.8072,0,-3.748,-3.7575,-3.7649,-3.7675,-3.7739,-3.7773,-3.7802,-3.7849,-3.7884,-3.7935,-3.7958,-3.8016,-3.8047,-3.8091,-3.8114,-3.8089,-3.82,-3.8172,-3.8213,-3.8212,-3.8235,-3.8233,-3.8345,-3.8258,-3.8257,-3.8257,-3.8257,0,-3.7572,-3.7635,-3.7673,-3.7719,-3.7788,-3.7811,-3.7879,-3.7907,-3.7948,-3.7998,-3.8006,-3.8052,-3.8081,-3.8131,-3.815,-3.8219,-3.8234,-3.8247,-3.8251,-3.8245,-3.8243,-3.8264,-3.8258,-3.826,-3.826,-3.8259,-3.8259,0,-3.7644,-3.7672,-3.7752,-3.7806,-3.7821,-3.787,-3.7916,-3.7959,-3.7984,-3.8047,-3.8063,-3.8101,-3.816,-3.8188,-3.8262,-3.8274,-3.8353,-3.8354,-3.8336,-3.8337,-3.8376,-3.8371,-3.8503,-3.8521,-3.8424,-3.8425,-3.8426,0,-3.77,-3.7748,-3.7806,-3.784,-3.7869,-3.7924,-3.796,-3.7984,-3.8021,-3.808,-3.8116,-3.8176,-3.8224,-3.8319,-3.8353,-3.8409,-3.8411,-3.8453,-3.8419,-3.8411,-3.8409,-3.8405,-3.8409,-3.8459,-3.846,-3.846,-3.8461,0,-3.7796,-3.7807,-3.7859,-3.7915,-3.7958,-3.8003,-3.8048,-3.8075,-3.8106,-3.8147,-3.8208,-3.8246,-3.8321,-3.8379,-3.8438,-3.8466,-3.8468,-3.8472,-3.8484,-3.8478,-3.8464,-3.847,-3.8351,-3.8468,-3.8467,-3.8467,-3.8466,-3.8466,-3.786,-3.7902,-3.7949,-3.8006,-3.8042,-3.8083,-3.8126,-3.8155,-3.8206,-3.8269,-3.828,-3.8344,-3.8391,-3.8469,-3.85,-3.855,-3.854,-3.8558,-3.8562,-3.8566,-3.8567,-3.8458,-3.8561,-3.8561,-3.856,-3.856,-3.856,0,-3.7955,-3.7985,-3.8037,-3.8099,-3.8143,-3.8141,-3.819,-3.8227,-3.8284,-3.8327,-3.8375,-3.8443,-3.85,-3.8538,-3.8595,-3.8628,-3.863,-3.8642,-3.8639,-3.8645,-3.8574,-3.8556,-3.8639,-3.8639,-3.8639,-3.8639,-3.8639,-3.8639,-3.8009,-3.8079,-3.8096,-3.8184,-3.8214,-3.8276,-3.8304,-3.8342,-3.8376,-3.8452,-3.8499,-3.8524,-3.8565,-3.8625,-3.8676,-3.8686,-3.8706,-3.8718,-3.8726,-3.8659,-3.865,-3.8642,-3.8626,-3.8722,-3.8722,-3.8793,-3.8794,-3.8795]},{"header":{"parameterUnit":"m.s-1","parameterCategory":1,"la1":30.2991,"la2":30.254,"lo1":-89.0895,"lo2":-89.0444,"dy":0.0017,"dx":0.0017,"nx":28,"ny":28,"refTime":"2025-06-02T09:00:00:Z","depth":0,"parameterNumber":3,"parameterNumberName":"V-component_of_WINDS"},"data":[0,0,0,0,0,0,0,0,0,0,0,0,0,0,0,0,0,0,0,0,0,0,0,0,0,0,0,0,0,0,0,0,0,0,0,0,0,0,0,0,0,0,0,0,0,0,0,0,0,0,0,0,0,0,0,0,0,0,4.7533,4.7534,0,4.7635,4.7636,4.7638,4.7594,4.7591,4.7589,4.7586,4.7686,4.7691,4.7696,0,0,0,0,0,0,0,0,0,0,0,0,0,4.7293,4.7298,4.7533,4.7534,4.7535,4.7635,4.7636,4.7638,4.7594,4.7591,4.7588,4.7585,4.7684,4.769,4.7696,0,0,0,0,0,0,0,0,0,0,0,0,0,4.7396,4.7299,4.7532,4.7526,4.7526,4.7635,4.7636,4.7638,4.7595,4.7591,4.7587,4.7584,4.7682,4.769,4.7697,4.7817,0,0,4.772,4.7723,0,0,0,0,0,0,0,0,4.7391,4.7405,4.7525,4.7526,4.7527,4.7598,4.7588,4.7698,4.7596,4.7568,4.7586,4.7582,4.7659,4.7668,4.7696,4.7822,4.7826,4.772,4.7725,4.7728,4.773,0,0,0,0,0,0,0,4.7383,4.74,4.7573,4.7527,4.7528,4.7515,4.7526,4.7609,4.7633,4.7571,4.7568,4.7581,4.7659,4.7689,4.7698,4.7827,4.772,4.7727,4.7731,4.7734,4.8054,4.8058,0,0,0,0,0,0,4.7377,4.7395,4.757,4.7576,4.7448,4.7523,4.7535,4.7579,4.7632,4.7637,4.7584,4.7578,4.7678,4.7689,4.7701,4.7843,4.7728,4.7735,4.7739,4.805,4.8055,4.8059,0,0,0,0,0,0,4.7372,4.7393,4.7566,4.7485,4.7506,4.7531,4.7581,4.7583,4.7612,4.7642,4.7646,4.761,4.7675,4.7691,4.7788,4.7846,4.7738,4.7745,4.8045,4.8051,4.8057,4.8129,0,0,0,0,0,0,4.7365,4.7392,4.7439,4.7486,4.751,4.7653,4.7584,4.7587,4.7626,4.762,4.7668,4.7672,4.7674,4.7777,4.7796,4.7854,4.7751,4.804,4.8048,4.8055,4.8121,4.8137,4.815,0,0,0,0,0,4.7357,4.7455,4.7442,4.7463,4.757,4.7657,4.767,4.7672,4.7631,4.7677,4.7696,4.767,4.7837,4.7788,4.7808,4.7869,4.8036,4.8046,4.8054,4.8115,4.8134,4.8149,0,0,0,0,0,0,4.7412,4.7461,4.7447,4.7563,4.7606,4.7649,4.7708,4.7691,4.7746,4.7737,4.7735,4.7746,4.7847,4.7868,4.7812,4.7987,4.793,4.7944,4.7969,4.7987,4.8001,4.7993,4.7757,0,0,0,0,0,4.7438,4.7506,4.7544,4.7643,4.7665,4.7683,4.7721,4.7718,4.7762,4.7779,4.7806,4.7848,4.7909,4.7949,4.8008,4.8125,4.8133,4.8177,4.8191,4.8202,4.8213,4.8274,4.8293,4.8089,4.8089,4.8089,0,0,4.7492,4.7527,4.7569,4.7655,4.7688,4.7756,4.7699,4.7774,4.7823,4.779,4.7884,4.7905,4.7951,4.8058,4.8107,4.8079,4.8272,4.8214,4.8223,4.8228,4.8285,4.8305,4.8322,4.8095,4.8094,4.8093,0,0,4.7624,4.7659,4.7744,4.7778,4.7829,4.784,4.7861,4.7906,4.7919,4.8014,4.7989,4.8047,4.8154,4.8188,4.8219,4.8362,4.834,4.8381,4.8454,4.8514,4.853,4.8544,4.8593,4.8611,4.8393,4.8393,4.8393,0,4.7684,4.7787,4.7789,4.7866,4.7903,4.7877,4.7962,4.7994,4.8062,4.8087,4.8055,4.8187,4.8217,4.833,4.8365,4.8392,4.8413,4.8375,4.8528,4.8542,4.8555,4.8602,4.862,4.8398,4.8397,4.8397,4.8396,0,4.7857,4.7929,4.7991,4.8058,4.8102,4.8182,4.8194,4.8238,4.8231,4.8245,4.8339,4.8374,4.8438,4.8465,4.8459,4.8577,4.8558,4.8528,4.847,4.8579,4.8623,4.8641,4.8404,4.8402,4.8401,4.84,0,0,4.8027,4.8093,4.8115,4.8144,4.8198,4.8253,4.8331,4.8395,4.8432,4.8479,4.8542,4.8633,4.8604,4.8639,4.8636,4.8689,4.8797,4.8651,4.8652,4.8675,4.8927,4.8948,4.8969,4.8783,4.8787,4.879,4.8922,0,4.8161,4.83,4.8303,4.8429,4.8494,4.847,4.8537,4.8577,4.8591,4.8647,4.8662,4.8726,4.8684,4.8705,4.8756,4.8774,4.8847,4.8764,4.884,4.8843,4.8827,4.8992,4.9016,4.9139,4.894,4.8942,4.8945,0,4.8337,4.839,4.8523,4.8566,4.8594,4.8655,4.8712,4.8767,4.881,4.8816,4.8856,4.8845,4.8921,4.8863,4.8967,4.8911,4.8942,4.8955,4.8959,4.8965,4.8899,4.9,4.9179,4.9197,4.8972,4.897,4.8968,0,4.8445,4.855,4.8642,4.8668,4.8721,4.8764,4.8788,4.8828,4.8865,4.8915,4.8939,4.8997,4.9028,4.9072,4.9076,4.9034,4.918,4.9123,4.9186,4.9186,4.9217,4.9214,4.9401,4.924,4.924,4.9239,4.9239,0,4.8594,4.8675,4.8691,4.8748,4.8838,4.8839,4.8928,4.8947,4.8983,4.9041,4.9024,4.9079,4.9082,4.9137,4.914,4.9225,4.924,4.9245,4.9245,4.9246,4.9245,4.9265,4.9256,4.9244,4.9243,4.9242,4.9242,0,4.8729,4.8743,4.8842,4.8884,4.8897,4.8961,4.8996,4.9049,4.9061,4.9135,4.9153,4.9172,4.9236,4.9245,4.932,4.9322,4.9423,4.9415,4.9409,4.9407,4.9469,4.9462,4.9674,4.97,4.9524,4.9526,4.9527,0,4.8822,4.8885,4.8934,4.8972,4.8998,4.9061,4.9099,4.9103,4.9143,4.9196,4.9242,4.9305,4.9355,4.9458,4.9478,4.9534,4.9526,4.9596,4.9534,4.9532,4.9524,4.952,4.9525,4.9607,4.9609,4.9611,4.9612,0,4.8986,4.8989,4.9046,4.9106,4.9152,4.9199,4.9242,4.9274,4.9283,4.9328,4.9395,4.9434,4.951,4.9572,4.9628,4.9649,4.9631,4.9631,4.9649,4.9649,4.9643,4.9645,4.944,4.9626,4.9625,4.9624,4.9623,4.9622,4.9102,4.9155,4.9197,4.9261,4.9294,4.9335,4.9386,4.9406,4.9461,4.9525,4.9523,4.9595,4.9634,4.9707,4.9733,4.9788,4.9765,4.979,4.9797,4.9802,4.9808,4.9636,4.9798,4.9798,4.9798,4.9797,4.9797,0,4.9262,4.9288,4.9347,4.9409,4.9458,4.9439,4.9485,4.9527,4.9591,4.963,4.968,4.9755,4.9814,4.9838,4.9896,4.9935,4.9928,4.995,4.9946,4.9951,4.9826,4.9805,4.9954,4.9954,4.9954,4.9954,4.9954,4.9954,4.9352,4.9441,4.9449,4.9553,4.9578,4.965,4.9678,4.9714,4.9745,4.983,4.988,4.9895,4.9928,4.9987,5.004,5.0045,5.0066,5.0091,5.0093,4.9976,4.996,4.9945,4.9924,5.0096,5.0097,5.0213,5.0214,5.0214]}]]